Location: Unspecified
(49.2170°N, 0.0000°E)
Time: 06:47:53
(UTC+00:00)

Vanguard 3 - Pass Details

Date: 25 January 2021
Orbit: 508 x 3262 km, 33.4° (Epoch: 08 March)

Event Time Altitude Azimuth Distance (km) Brightness Sun altitude
Rises 07:15:10 0° 258° (WSW) 4,434 10.4 -4.5°
Reaches altitude 10° 07:18:10 10° 248° (WSW) 3,804 10.2 -4.0°
Maximum altitude 07:26:54 30° 192° (SSW) 3,359 10.5 -2.7°
Drops below altitude 10° 07:39:53 10° 140° (SE) 5,718 12.9 -0.8°
Sets 07:45:45 0° 132° (SE) 7,017 14.1 0.0°
